• In Hungary
  • List of Countries
  • For 7 days
  • Water Temperature
  • Satellite Maps
  • Weather Map
  • News
  • Weather Widgets
  • user-avatar
    Login

    Hourly Weather Komariha

    Today, 15 October, Monday

    Time Temperature Precipitation Wind Pressure Humidity
    00:00 0°C° 0 mm 4 mps 746 mmHg 44%
    01:00 0°C° 0 mm 4 mps 746 mmHg 45%
    02:00 -1°C° 0 mm 4 mps 746 mmHg 45%
    03:00 -1°C° 0 mm 4 mps 746 mmHg 45%
    04:00 -1°C° 0 mm 4 mps 746 mmHg 47%
    05:00 -1°C° 0 mm 4 mps 746 mmHg 48%
    06:00 -1°C° 0 mm 3 mps 746 mmHg 52%
    07:00 0°C° 0 mm 3 mps 746 mmHg 48%
    08:00 0°C° 0 mm 4 mps 746 mmHg 44%
    09:00 +3°C° 0 mm 4 mps 746 mmHg 40%
    10:00 +4°C° 0 mm 4 mps 746 mmHg 37%
    11:00 +5°C° 0 mm 3 mps 745 mmHg 33%
    12:00 +7°C° 0 mm 2 mps 745 mmHg 29%
    13:00 +7°C° 0 mm 2 mps 745 mmHg 29%
    14:00 +8°C° 0 mm 2 mps 744 mmHg 28%
    15:00 +8°C° 0 mm 2 mps 744 mmHg 27%
    16:00 +7°C° 0 mm 3 mps 743 mmHg 31%
    17:00 +5°C° 0 mm 3 mps 743 mmHg 34%
    18:00 +3°C° 0 mm 3 mps 742 mmHg 38%
    19:00 +3°C° 0 mm 4 mps 742 mmHg 39%
    20:00 +3°C° 0 mm 4 mps 741 mmHg 41%
    21:00 +3°C° 0 mm 4 mps 741 mmHg 43%
    22:00 +3°C° 0.1 mm 4 mps 741 mmHg 45%
    23:00 +3°C° 0.1 mm 4 mps 740 mmHg 47%

    Tomorrow, 16 October, Tuesday

    Time Temperature Precipitation Wind Pressure Humidity
    00:00 +3°C° 0.1 mm 4 mps 739 mmHg 49%
    01:00 +3°C° 0.1 mm 4 mps 739 mmHg 51%
    02:00 +2°C° 0.1 mm 5 mps 738 mmHg 54%
    03:00 +1°C° 0.1 mm 5 mps 737 mmHg 56%
    04:00 +1°C° 0.2 mm 4 mps 737 mmHg 59%
    05:00 +1°C° 0.2 mm 4 mps 737 mmHg 62%
    06:00 +2°C° 0.2 mm 3 mps 737 mmHg 65%
    07:00 +3°C° 0.3 mm 3 mps 738 mmHg 67%
    08:00 +4°C° 0.3 mm 3 mps 738 mmHg 69%
    09:00 +4°C° 0.3 mm 3 mps 738 mmHg 71%
    10:00 +6°C° 0.1 mm 4 mps 738 mmHg 68%
    11:00 +7°C° 0.1 mm 5 mps 738 mmHg 65%
    12:00 +9°C° 0.1 mm 6 mps 738 mmHg 61%
    13:00 +10°C° 0 mm 7 mps 739 mmHg 59%
    14:00 +10°C° 0 mm 7 mps 739 mmHg 56%
    15:00 +10°C° 0 mm 7 mps 739 mmHg 54%
    16:00 +9°C° 0 mm 6 mps 739 mmHg 57%
    17:00 +8°C° 0 mm 5 mps 740 mmHg 59%
    18:00 +7°C° 0 mm 3 mps 740 mmHg 62%
    19:00 +7°C° 0 mm 3 mps 741 mmHg 63%
    20:00 +5°C° 0 mm 3 mps 742 mmHg 63%
    21:00 +5°C° 0 mm 2 mps 742 mmHg 64%
    22:00 +4°C° 0 mm 2 mps 743 mmHg 62%
    23:00 +3°C° 0 mm 2 mps 743 mmHg 61%

    Day after tomorrow, 17 October, Wednesday

    Time Temperature Precipitation Wind Pressure Humidity
    00:00 +3°C° 0 mm 2 mps 743 mmHg 60%
    01:00 +3°C° 0 mm 2 mps 743 mmHg 59%
    02:00 +2°C° 0 mm 2 mps 743 mmHg 59%
    03:00 +2°C° 0 mm 2 mps 744 mmHg 58%
    04:00 +2°C° 0 mm 2 mps 744 mmHg 57%
    05:00 +3°C° 0 mm 1 mps 744 mmHg 56%
    06:00 +4°C° 0 mm 1 mps 744 mmHg 54%
    07:00 +4°C° 0 mm 1 mps 744 mmHg 52%
    08:00 +4°C° 0 mm 2 mps 744 mmHg 50%
    09:00 +5°C° 0 mm 2 mps 744 mmHg 48%
    10:00 +5°C° 0 mm 2 mps 744 mmHg 44%
    11:00 +5°C° 0 mm 3 mps 744 mmHg 41%
    12:00 +6°C° 0 mm 4 mps 744 mmHg 37%
    13:00 +7°C° 0 mm 4 mps 744 mmHg 36%
    14:00 +7°C° 0 mm 5 mps 744 mmHg 36%
    15:00 +7°C° 0 mm 6 mps 744 mmHg 36%
    16:00 +6°C° 0 mm 5 mps 744 mmHg 40%
    17:00 +5°C° 0 mm 4 mps 744 mmHg 45%
    18:00 +3°C° 0 mm 3 mps 744 mmHg 49%
    19:00 +3°C° 0 mm 3 mps 744 mmHg 52%
    20:00 +3°C° 0 mm 2 mps 744 mmHg 54%
    21:00 +3°C° 0 mm 2 mps 744 mmHg 57%
    22:00 +2°C° 0 mm 2 mps 744 mmHg 59%
    23:00 +2°C° 0 mm 2 mps 744 mmHg 60%

    18 October, Thursday

    Time Temperature Precipitation Wind Pressure Humidity
    00:00 +2°C° 0 mm 2 mps 744 mmHg 62%
    01:00 +1°C° 0 mm 3 mps 744 mmHg 63%
    02:00 0°C° 0 mm 3 mps 744 mmHg 65%
    03:00 0°C° 0 mm 3 mps 744 mmHg 66%
    04:00 -1°C° 0 mm 4 mps 744 mmHg 65%
    05:00 -1°C° 0 mm 4 mps 744 mmHg 65%
    06:00 -1°C° 0 mm 5 mps 744 mmHg 64%
    07:00 -1°C° 0 mm 6 mps 743 mmHg 59%
    08:00 0°C° 0 mm 7 mps 743 mmHg 53%
    09:00 +1°C° 0 mm 9 mps 743 mmHg 48%
    10:00 +2°C° 0 mm 9 mps 742 mmHg 45%
    11:00 +3°C° 0 mm 10 mps 742 mmHg 43%
    12:00 +5°C° 0 mm 10 mps 741 mmHg 40%
    13:00 +5°C° 0 mm 10 mps 741 mmHg 40%
    14:00 +5°C° 0 mm 10 mps 740 mmHg 40%
    15:00 +5°C° 0 mm 10 mps 740 mmHg 39%
    16:00 +5°C° 0 mm 9 mps 739 mmHg 40%
    17:00 +4°C° 0 mm 8 mps 739 mmHg 40%
    18:00 +4°C° 0 mm 7 mps 739 mmHg 41%
    19:00 +4°C° 0 mm 7 mps 739 mmHg 41%
    20:00 +4°C° 0 mm 8 mps 739 mmHg 42%
    21:00 +4°C° 0 mm 8 mps 739 mmHg 42%
    22:00 +2°C° 0 mm 9 mps 738 mmHg 44%
    23:00 +2°C° 0 mm 9 mps 738 mmHg 47%

    19 October, Friday

    Time Temperature Precipitation Wind Pressure Humidity
    00:00 +2°C° 0 mm 10 mps 738 mmHg 49%
    01:00 +2°C° 0 mm 9 mps 738 mmHg 50%
    02:00 +2°C° 0 mm 9 mps 738 mmHg 50%
    03:00 +1°C° 0 mm 8 mps 738 mmHg 51%
    04:00 +2°C° 0 mm 8 mps 738 mmHg 51%
    05:00 +3°C° 0 mm 7 mps 737 mmHg 51%
    06:00 +3°C° 0 mm 7 mps 737 mmHg 51%
    07:00 +3°C° 0 mm 7 mps 737 mmHg 49%
    08:00 +4°C° 0 mm 8 mps 738 mmHg 47%
    09:00 +4°C° 0 mm 8 mps 738 mmHg 45%
    10:00 +5°C° 0 mm 9 mps 738 mmHg 45%
    11:00 +5°C° 0 mm 9 mps 738 mmHg 46%
    12:00 +6°C° 0 mm 9 mps 738 mmHg 46%
    13:00 +6°C° 0.1 mm 9 mps 738 mmHg 48%
    14:00 +6°C° 0.1 mm 9 mps 738 mmHg 49%
    15:00 +5°C° 0.1 mm 8 mps 738 mmHg 51%
    16:00 +5°C° 0.1 mm 7 mps 738 mmHg 55%
    17:00 +4°C° 0.1 mm 6 mps 738 mmHg 59%
    18:00 +5°C° 0.1 mm 5 mps 738 mmHg 62%
    19:00 +4°C° 0.2 mm 4 mps 738 mmHg 66%
    20:00 +4°C° 0.2 mm 4 mps 738 mmHg 69%
    21:00 +4°C° 0.2 mm 3 mps 738 mmHg 73%
    22:00 +3°C° 0.1 mm 3 mps 738 mmHg 75%
    23:00 +3°C° 0.1 mm 3 mps 738 mmHg 78%

    20 October, Saturday

    Time Temperature Precipitation Wind Pressure Humidity
    00:00 +2°C° 0.1 mm 3 mps 738 mmHg 81%
    01:00 +2°C° 0 mm 3 mps 738 mmHg 82%
    02:00 +2°C° 0 mm 3 mps 738 mmHg 83%
    03:00 +1°C° 0 mm 3 mps 738 mmHg 83%
    04:00 +1°C° 0 mm 3 mps 739 mmHg 82%
    05:00 +1°C° 0 mm 3 mps 739 mmHg 80%
    06:00 0°C° 0 mm 4 mps 739 mmHg 78%
    07:00 0°C° 0 mm 4 mps 739 mmHg 75%
    08:00 +1°C° 0 mm 5 mps 740 mmHg 71%
    09:00 +1°C° 0 mm 5 mps 740 mmHg 67%
    10:00 +2°C° 0 mm 6 mps 740 mmHg 64%
    11:00 +3°C° 0 mm 6 mps 740 mmHg 61%
    12:00 +4°C° 0 mm 7 mps 741 mmHg 57%
    13:00 +4°C° 0 mm 7 mps 741 mmHg 55%
    14:00 +4°C° 0 mm 7 mps 741 mmHg 52%
    15:00 +4°C° 0 mm 7 mps 741 mmHg 50%
    16:00 +3°C° 0 mm 7 mps 741 mmHg 55%
    17:00 +3°C° 0 mm 6 mps 742 mmHg 59%
    18:00 +2°C° 0 mm 6 mps 742 mmHg 64%
    19:00 +2°C° 0.1 mm 6 mps 743 mmHg 65%
    20:00 +2°C° 0.1 mm 6 mps 743 mmHg 66%
    21:00 +2°C° 0.1 mm 7 mps 743 mmHg 67%
    22:00 +2°C° 0.1 mm 6 mps 743 mmHg 67%
    23:00 +2°C° 0.1 mm 6 mps 743 mmHg 66%
    Show more